Regional Weather Roundup
Issued by NWS

Home | Current Version | Previous Version | Graphics & Text | Print | Product List | Glossary On
Versions: 1 2 3 4 5 6 7 8 9 10 11 12 13 14 15 16 17 18 19 20 21 22 23 24 25 26 27 28 29 30 31 32 33 34 35 36 37 38 39 40 41 42 43 44 45 46 47 48 49 50
000
ASUS43 KMKX 290900
RWRWI

WISCONSIN REGIONAL WEATHER ROUNDUP
NATIONAL WEATHER SERVICE MILWAUKEE/SULLIVAN WI
300 AM CST MON DEC 29 2014

NOTE: "FAIR" INDICATES FEW OR NO CLOUDS BELOW 12,000 FEET WITH NO
SIGNIFICANT WEATHER AND/OR OBSTRUCTIONS TO VISIBILITY.

WIZ001-002-006>008-014>016-023>028-291000-
NORTHWEST WISCONSIN

CITY           SKY/WX    TMP DP  RH WIND       PRES   REMARKS
SUPERIOR ARPT  CLEAR      0  -7  72 NW5       30.47R WCI -10
ASHLAND        MOCLDY    -2  -7  79 SW6       30.40R WCI -14
HAYWARD        PTCLDY   -11 -16  78 CALM      30.38R
SIREN          PTCLDY    -5  -9  82 NW5       30.43R WCI -15
CUMBERLAND     MOCLDY     1  -6  71 N8        30.37R WCI -12
RICE LAKE      MOCLDY     2  -4  75 N5        30.40S WCI  -7
CHETEK         MOCLDY    -2  -6  86 CALM      30.39R
LADYSMITH      PTCLDY    -8 -12  81 NW5       30.38R WCI -19
EAU CLAIRE     NOT AVBL
MENOMONIE      MOCLDY     6  -2  70 N6        30.40S WCI  -5
NEW RICHMOND   MOCLDY     0  -5  80 N5        30.40S WCI -10
OSCEOLA        MOCLDY     3  -2  79 N5        30.45R WCI  -6
$$

WIZ003>005-009-010-017-018-291000-
NORTH CENTRAL WISCONSIN

CITY           SKY/WX    TMP DP  RH WIND       PRES   REMARKS
MANITOWISH WTR LGT SNOW -13 -18  78 CALM      30.28R
ARBOR VITAE    MOCLDY    -9 -13  79 CALM      30.28R
WOODRUFF       MOCLDY    -9 -13  79 CALM      30.28R
RHINELANDER    PTCLDY    -2  -5  87 NW5       30.27S WCI -12
EAGLE RIVER    FLURRIES  -1  -6  80 W5        30.26R WCI -12
LAND O LAKES   FLURRIES   5   2  86 W3        30.26R
PHILLIPS       PTCLDY   -16 -21  79 CALM      30.31S
TOMAHAWK       MOCLDY   -14 -18  81 CALM      30.30S
MEDFORD        MOCLDY   N/A N/A N/A N3        30.30R
MERRILL        PTCLDY    -4  -8  86 CALM      30.31R
$$

WIZ029-030-035-036-043>047-291000-
CENTRAL WISCONSIN

CITY           SKY/WX    TMP DP  RH WIND       PRES   REMARKS
WAUSAU         MOCLDY     2  -1  88 NW6       30.30S WCI  -9
MOSINEE        MOCLDY     3   1  92 NW6       30.31S WCI  -8
MARSHFIELD     MOCLDY     5   0  79 N7        30.32R WCI  -7
STEVENS POINT  PTCLDY     7   3  84 CALM      30.33R
WAUPACA        MOCLDY    15   7  72 N5        30.35R WCI   7
WAUTOMA        NOT AVBL
WISC RAPIDS    PTCLDY    11   5  77 N7        30.34S WCI   0
CAMP DOUGLAS   NOT AVBL
$$

WIZ011>013-019>022-031-037>040-048>050-291000-
NORTHEAST WISCONSIN

CITY           SKY/WX    TMP DP  RH WIND       PRES   REMARKS
ANTIGO         MOCLDY    -4  -7  87 NW5       30.27S WCI -14
SHAWANO        PTCLDY    12   7  79 CALM      30.34S
OCONTO         PTCLDY    11   7  82 CALM      30.34S
STURGEON BAY   PTCLDY    16   7  67 N12       30.33S WCI   3
GREEN BAY      PTCLDY    15   7  70 N7        30.34S WCI   5
MANITOWOC      NOT AVBL
APPLETON       MOCLDY    14   7  73 N8        30.32S WCI   3
CLINTONVILLE   MOCLDY    12   5  73 N3        30.34S
OSHKOSH        MOCLDY    16   7  67 N12       30.32R WCI   3
$$

WIZ032>034-041-042-053>061-291000-
SOUTHWEST WISCONSIN

CITY           SKY/WX    TMP DP  RH WIND       PRES   REMARKS
LA CROSSE      CLOUDY    17   9  70 N7        30.38R WCI   8
SPARTA         CLOUDY    14  10  85 N3        30.37R
VIROQUA        CLOUDY    18  16  92 N6        30.31R WCI   9
BOSCOBEL       CLOUDY    22  12  65 NE6       30.34R WCI  14
PRAIRIE DU CHI CLOUDY    23  13  64 N3        30.33R
PLATTEVILLE    CLOUDY    24  20  85 CALM      30.30R
$$

WIZ056-057-062-063-064-067-068-291000-
SOUTH CENTRAL WISCONSIN

CITY           SKY/WX    TMP DP  RH WIND       PRES   REMARKS
REEDSBURG      CLOUDY    18  13  82 N5        30.33R WCI  11
BARABOO/DELLS  CLOUDY    18  13  82 N5        30.32R WCI  11
LONE ROCK      NOT AVBL
MINERAL POINT  CLOUDY    25  18  74 N7        30.28R WCI  17
MADISON        CLOUDY    20  13  74 N8        30.31R WCI  10
MIDDLETON      CLOUDY    23  15  71 N9        30.31S WCI  13
WATERTOWN      CLOUDY    21  17  84 N7        30.30S WCI  12
MONROE         CLOUDY    25  23  93 N8        30.27R WCI  16
JANESVILLE     CLOUDY    28  21  74 NE9       30.29R WCI  20
$$

WIZ051-052-058>065-066-070>072-291000-
SOUTHEAST WISCONSIN

CITY           SKY/WX    TMP DP  RH WIND       PRES   REMARKS
MILWAUKEE      MOCLDY    25  16  68 N7        30.29S WCI  17
WAUKESHA       CLOUDY    21  18  86 N6        30.30R WCI  14
MILWAUKEE/TIMM MOCLDY    23  16  74 N9        30.31R WCI  13
RACINE         CLOUDY    26  20  77 N9        30.30S WCI  17
BURLINGTON     CLOUDY    23  21  89 N5        30.28S WCI  17
KENOSHA        CLOUDY    26  21  81 N7        30.28S WCI  18
FOND DU LAC    MOCLDY    18   9  68 N8        30.33R WCI   8
SHEBOYGAN      PTCLDY    17   9  70 N8        30.32R WCI   7
WEST BEND      MOCLDY    21  14  73 N6        30.30R WCI  14
JUNEAU         MOCLDY    18  15  86 N7        30.32R WCI   9
$$

LSZ147-162-291000-
LAKE SUPERIOR

STATION/POSITION TIME  TEMP    WIND        PRES    WAVE
                       AIR SEA DIR/SP/G            HT/PER
                 (UTC) (F)     (DEG/KT/KT) (MB)    (FT/S)
DEVILS ISLAND    0800    8     320/ 14/ 16 1030.9R
PORT WING        0840    7     310/ 10/ 15 1030.8R
SAXON HARBOR     0800    8     240/  7/ 10 1028.8R
$$

LMZ867-665-643>646-291000-
LAKE MICHIGAN

STATION/POSITION TIME  TEMP    WIND        PRES    WAVE
                       AIR SEA DIR/SP/G            HT/PER
                 (UTC) (F)     (DEG/KT/KT) (MB)    (FT/S)
CHAMBERS ISLAND  0800   15     300/  7/ 10 1027.1R
NORTHPORT PIER   0811   18     310/ 12/ 20 1026.4R
SISTER BAY       0828          330/ 18/ 22   N/A
ALGOMA LAKESHORE 0745          330/  8/ 10   N/A
KEWAUNEE LAKESHO 0800   16     330/  4/  8 1026.1R
SHEBOYGAN LAKESH 0800   21 36  360/ 17/ 18 1027.7R
PORT WASHINGTON  0800   23     350/  2/ 20 1027.4R
MILWAUKEE LAKESH 0800   26     350/ 10/ 13   N/A
KENOSHA   LAKESH 0800   28     330/  7/  9 1025.4R
$$

TC  - TEMPERATURE IN CELSIUS
VSB - VISIBILITY IN STATUTE MILES
WCI - WIND CHILL INDEX
HX  - HEAT INDEX



USA.gov is the U.S. government's official web portal to all federal, state and local government web resources and services.